This is the latest recevied weather packets stored in our database for station/object KC4JIR. If no packets are shown the sender has not sent any weather packets the latest 10 day(s).
| Time | Temp. | Humidity | Pressure | Rain* | Wind** | Luminosity | Snow |
|---|---|---|---|---|---|---|---|
| 1788387733 | 35° C | 59% | 1013.4 hPa | 0 mm | - | 54 W/m² | - |
| 1788387428 | 34.44° C | 60% | 1013.3 hPa | 0 mm | - | 130 W/m² | - |
| 1788387126 | 35° C | 58% | 1013.5 hPa | 0 mm | - | 131 W/m² | - |
| 1788386822 | 35° C | 56% | 1013.7 hPa | 0 mm | - | 169 W/m² | - |
| 1788386517 | 35° C | 59% | 1013.4 hPa | 0 mm | - | 58 W/m² | - |
| 1788386213 | 35° C | 59% | 1013.5 hPa | 0 mm | - | 208 W/m² | - |
| 1788385908 | 35.56° C | 60% | 1013.6 hPa | 0 mm | - | 229 W/m² | - |
| 1788385603 | 35.56° C | 59% | 1013.6 hPa | 0 mm | - | 231 W/m² | - |
| 1788385302 | 35.56° C | 58% | 1013.7 hPa | 0 mm | - | 256 W/m² | - |
| 1788384998 | 36.11° C | 55% | 1013.5 hPa | 0 mm | - | 276 W/m² | - |
| 1788384697 | 36.11° C | 53% | 1013.4 hPa | 0 mm | - | 95 W/m² | - |
| 1788384392 | 35.56° C | 51% | 1013.5 hPa | 0 mm | - | 317 W/m² | - |
| 1788384088 | 35.56° C | 52% | 1013.7 hPa | 0 mm | - | 294 W/m² | - |
| 1788383785 | 35.56° C | 51% | 1013.7 hPa | 0 mm | - | 342 W/m² | - |
| 1788383480 | 36.11° C | 52% | 1013.7 hPa | 0 mm | - | 327 W/m² | - |
| 1788383179 | 36.11° C | 52% | 1013.9 hPa | 0 mm | - | 97 W/m² | - |
| 1788382875 | 36.11° C | 52% | 1013.5 hPa | 0 mm | - | 391 W/m² | - |
| 1788382573 | 36.67° C | 55% | 1013.5 hPa | 0 mm | - | 390 W/m² | - |
| 1788382269 | 36.67° C | 49% | 1013.5 hPa | 0 mm | - | 378 W/m² | - |
| 1788381968 | 36.67° C | 48% | 1013.9 hPa | 0 mm | - | 365 W/m² | - |
| 1788381663 | 36.11° C | 52% | 1013.9 hPa | 0 mm | - | 437 W/m² | - |
| 1788381359 | 36.67° C | 51% | 1014 hPa | 0 mm | - | 491 W/m² | - |
| 1788381058 | 36.67° C | 48% | 1014 hPa | 0 mm | - | 496 W/m² | - |
| 1788380754 | 36.67° C | 50% | 1014.1 hPa | 0 mm | - | 484 W/m² | - |
| 1788380451 | 36.67° C | 47% | 1014.1 hPa | 0 mm | - | 517 W/m² | - |
* Rain latest hour (hover to see other rain measurements)
** Current wind speed in m/s (hover to see current wind gust speed)